Location: Exeidioux
(45.6312°N, 1.6819°E)
Time: 20:49:29
(UTC+00:00)

Cosmos 1844 Rocket - Pass Details

Date: 03 March 2021
Orbit: 826 x 843 km, 71.0° (Epoch: 13 April)

Event Time Altitude Azimuth Distance (km) Brightness Sun altitude
Rises 18:21:46 0° 338° (NNW) 3,375 6.1 -7.6°
Reaches altitude 10° 18:24:22 10° 346° (NNW) 2,438 5.3 -8.0°
Maximum altitude 18:29:37 40° 55° (NE) 1,201 3.1 -8.9°
Drops below altitude 10° 18:34:49 10° 125° (SE) 2,426 4.6 -9.8°
Enters shadow 18:36:01 - 129° (SE) 2,850 5.0 -10.1°
